This is the latest recevied weather packets stored in our database for station/object XQ6AK-15. If no packets are shown the sender has not sent any weather packets the latest 10 day(s).
| Time | Temp. | Humidity | Pressure | Rain* | Wind** | Luminosity | Snow |
|---|---|---|---|---|---|---|---|
| 1777673124 | 9.44° C | 89% | 1024.2 hPa | 0 mm | - | 0 W/m² | - |
| 1777672821 | 10° C | 89% | 1024.1 hPa | 0 mm | - | 0 W/m² | - |
| 1777672517 | 10° C | 87% | 1024.1 hPa | 0 mm | - | 3 W/m² | - |
| 1777672212 | 10° C | 85% | 1024 hPa | 0 mm | - | 5 W/m² | - |
| 1777671908 | 10.56° C | 83% | 1024 hPa | 0 mm | - | 8 W/m² | - |
| 1777671604 | 10.56° C | 82% | 1023.8 hPa | 0 mm | - | 11 W/m² | - |
| 1777671301 | 11.11° C | 80% | 1023.8 hPa | 0 mm | - | 17 W/m² | - |
| 1777670996 | 11.67° C | 76% | 1023.9 hPa | 0 mm | - | 24 W/m² | - |
| 1777670693 | 11.67° C | 74% | 1023.6 hPa | 0 mm | - | 32 W/m² | - |
| 1777670390 | 12.22° C | 71% | 1023.8 hPa | 0 mm | - | 39 W/m² | - |
| 1777670087 | 12.22° C | 70% | 1023.7 hPa | 0 mm | - | 53 W/m² | - |
| 1777669785 | 11.67° C | 70% | 1023.6 hPa | 0 mm | - | 50 W/m² | - |
| 1777669481 | 11.67° C | 75% | 1023.7 hPa | 0 mm | - | 44 W/m² | - |
| 1777669178 | 11.67° C | 75% | 1023.6 hPa | 0 mm | - | 43 W/m² | - |
| 1777668875 | 11.11° C | 73% | 1023.5 hPa | 0 mm | - | 39 W/m² | - |
| 1777668572 | 11.67° C | 75% | 1023.6 hPa | 0 mm | - | 42 W/m² | - |
| 1777668268 | 11.11° C | 76% | 1023.6 hPa | 0 mm | - | 46 W/m² | - |
| 1777667964 | 11.67° C | 75% | 1023.5 hPa | 0 mm | - | 41 W/m² | - |
| 1777667661 | 11.67° C | 72% | 1023.6 hPa | 0 mm | - | 42 W/m² | - |
| 1777667359 | 11.67° C | 71% | 1023.5 hPa | 0 mm | - | 40 W/m² | - |
| 1777667056 | 12.22° C | 73% | 1023.5 hPa | 0 mm | - | 43 W/m² | - |
| 1777666752 | 12.22° C | 75% | 1023.2 hPa | 0 mm | - | 78 W/m² | - |
| 1777666449 | 11.67° C | 73% | 1023.3 hPa | 0 mm | - | 88 W/m² | - |
| 1777666146 | 12.22° C | 72% | 1023.5 hPa | 0 mm | - | 63 W/m² | - |
| 1777665843 | 12.22° C | 73% | 1023.4 hPa | 0 mm | - | 80 W/m² | - |
* Rain latest hour (hover to see other rain measurements)
** Current wind speed in m/s (hover to see current wind gust speed)